Weather in Zhukovskiy

Russia / Moscow Oblast     55°35′50″N   38°07′11″E
temp.,
°C
wind,
m/s
gust,
m/s
humid.,
%
clouds,
%
prec.,
mm/h
press.,
hPa
HPBL,
m
24 october, sun
sun2400:00+3wsw51081100 0.0 1009419
03:00+4wsw61089100 0.0 1010870
06:00+4w6983100 0.2 1010829
09:00+3wsw51096100 0.3 1012726
12:00+3wnw51096100 0.3 1014717
15:00+4nw71175100 0.8 10161138
18:00+2nnw712677 0.1 10191096
21:00+1nnw6127832 0.1 1022688
25 october, mon
mon2500:000nnw510825 0.0 1024407
03:00−1nw48815 0.0 1026216
06:00−2nw368950 0.0 1027162
09:000wnw3581100 0.0 1029322
12:00+2w455476 0.0 1029706
15:00+4wsw565296 0.0 1028874
18:00+1sw41073100 0.0 1027230
21:00+1sw613726 0.0 1026408
26 october, tue
tue2600:000sw613762 0.0 1026336
03:000wsw613827 0.0 1025356
06:000wsw61384100 0.0 1024359
09:00+2wsw61378100 0.0 1024425
12:00+5wsw71361100 0.0 1023534
15:00+6wsw6136067 0.0 1022637
18:00+5sw61466100 0.0 1022453
21:00+4sw6146895 0.0 1021453
27 october, wed
wed2700:00+3sw6137258 0.0 1021396
03:00+2sw613735 0.0 1020354
06:00+2sw512755 0.0 1020323
09:00+3sw614700 0.0 1019426
12:00+7sw81354100 0.0 1018633
15:00+7sw71358100 0.0 1016743
18:00+6sw61367100 0.0 1016575
21:00+5w6988100 0.3 1017825
28 october, thu
thu2800:00+5w5989100 0.8 1017438
03:00+5w4989100 0.8 1018345
06:00+5wsw4880100 0.0 1019225
09:00+6w487390 0.0 1020269
12:00+8wsw4658100 0.0 10211199
15:00+8sw4870100 0.0 1020450
18:00+7ssw4980100 0.1 1020413
21:00+6s4893100 2.6 1019411